Other Surface Observations
Issued by NWS Jacksonville, FL

Current Version | Previous Version | Text Only | Print | Product List | Glossary On
Versions: 1 2 3 4 5 6 7 8 9 10 11 12 13 14 15 16 17 18 19 20 21 22 23 24 25 26 27 28 29 30 31 32 33 34 35 36 37 38 39 40 41 42 43 44 45 46 47 48 49 50
000
SXUS52 KJAX 300013
OSOJAX
OTHER SURFACE OBSERVATIONS
NATIONAL WEATHER SERVICE JACKSONVILLE FL
800 PM EDT THU SEP 29 2016

FLZ020>025-030>033-035>038-040-300100-
...FLORIDA...

CITY           SKY/WX    TMP DP  RH WIND       PRES   REMARKS
CECIL FIELD    CLEAR     79  73  83 S5        29.97R
HERLONG FIELD  NOT AVBL
FERNANDINA BCH NOT AVBL
LAKE CITY      FAIR      79  73  83 S3        29.98R
JUNIPER SPGS   NOT AVBL
BUNNELL        NOT AVBL
KEYSTONE HGTS  FAIR      79  73  83 S3        29.99R
$$

GAZ132>136-149>154-162>166-300100-
...GEORGIA...

CITY           SKY/WX    TMP DP  RH WIND       PRES   REMARKS
JESUP          MOCLDY    82  77  83 S5        29.95R
HOMERVILLE     FAIR      79  70  73 CALM      29.96R
SWAINSBORO     MOCLDY    77  64  65 CALM      29.95R
CORDELE        NOT AVBL
EASTMAN        FAIR      75  50  41 CALM      29.97R
$$

PLEASE NOTE:  THESE OBSERVATIONS ARE NOT QUALITY CONTROLLED AND MAY
NOT BE AVAILABLE AT ALL TIMES.
$$




USA.gov is the U.S. government's official web portal to all federal, state and local government web resources and services.